Weather History for PADQ - November, 2014

Change the Weather History Date:

Saturday, November 29, 2014

  Actual Average Record
Temperature  
Mean Temperature 36 °F 32 °F  
Max Temperature 42 °F 37 °F 49 °F (1976)
Min Temperature 29 °F 27 °F 0 °F (1971)
Degree Days  
Heating Degree Days 29 33  
Month to date heating degree days 717 901  
Since 1 July heating degree days 2366 2759  
Cooling Degree Days 0    
Month to date cooling degree days 0  
Year to date cooling degree days 4  
Moisture  
Dew Point 32 °F    
Average Humidity 0    
Maximum Humidity 0    
Minimum Humidity 0    
Precipitation  
Precipitation 0.04 in 0.25 in 1.68 in (1976)
Month to date precipitation 13.00 6.61  
Year to date precipitation 75.65 69.01  
Snow  
Snow 0.00 in 0.30 in 2.60 in (1997)
Month to date snowfall 0.0 6.0  
Since 1 July snowfall 0.7 7.1  
Since 1 September snowfall 0.7 7.1  
Snow Depth 0.00 in    
Sea Level Pressure  
Sea Level Pressure 30.14 in    
Wind  
Wind Speed 5 mph (West)    
Max Wind Speed 21 mph    
Max Gust Speed 27 mph    
Visibility 9 miles    
Events Rain    
T = Trace of Precipitation, MM = Missing Value Source: NWS Daily Summary

Daily Weather History Graph

Daily Weather History Graph

Search for Another Location

Airport or City:

Trip Planner

Search our weather history database for the weather conditions in past years. The results will help you decide how hot, cold, wet, or windy it might be!

Date:

Astronomy

Nov. 29, 2014 Rise Set
Actual Time 9:24 AM AKST 4:31 PM AKST
Civil Twilight 8:36 AM AKST 5:19 PM AKST
Nautical Twilight 7:46 AM AKST 6:10 PM AKST
Astronomical Twilight 6:58 AM AKST 6:57 PM AKST
Moon 1:57 PM AKST (11/29) 12:27 AM AKST (11/29)
Length of Visible Light 8h 43m
Length of Day
7h 06m
First Quarter, 55% of the Moon is Illuminated
Nov 29
First Quarter
Dec 6
Full
Dec 14
Last Quarter
Dec 21
New
Dec 28
First Quarter

Hourly Weather History & Observations

Time (AKST) Temp. Windchill Dew Point Humidity Pressure Visibility Wind Dir Wind Speed Gust Speed Precip Events Conditions
12:53 AM 35.1 °F - 34.0 °F 96% 30.08 in 6.0 mi Calm Calm - 0.01 in Rain Light Rain
1:53 AM 36.0 °F - 35.1 °F 97% 30.08 in 8.0 mi Calm Calm - 0.02 in Rain Light Rain
2:53 AM 34.0 °F 29.8 °F 34.0 °F 100% 30.08 in 5.0 mi West 4.6 mph - 0.01 in   Overcast
3:53 AM 35.1 °F 32.2 °F 34.0 °F 96% 30.08 in 10.0 mi West 3.5 mph - N/A   Overcast
4:53 AM 36.0 °F 33.3 °F 34.0 °F 93% 30.09 in 10.0 mi WSW 3.5 mph - N/A   Overcast
5:53 AM 36.0 °F - 35.1 °F 97% 30.09 in 10.0 mi Calm Calm - N/A   Overcast
6:53 AM 36.0 °F 33.3 °F 35.1 °F 97% 30.10 in 10.0 mi WSW 3.5 mph - N/A   Mostly Cloudy
7:53 AM 37.9 °F 34.4 °F 35.1 °F 89% 30.11 in 10.0 mi WNW 4.6 mph - N/A   Overcast
8:53 AM 37.9 °F 32.1 °F 34.0 °F 86% 30.13 in 10.0 mi West 8.1 mph - N/A   Mostly Cloudy
9:53 AM 37.9 °F 32.1 °F 33.1 °F 83% 30.14 in 10.0 mi WNW 8.1 mph - N/A   Mostly Cloudy
10:53 AM 39.0 °F - 33.1 °F 79% 30.15 in 10.0 mi Calm Calm - N/A   Mostly Cloudy
11:53 AM 39.0 °F 35.7 °F 33.1 °F 79% 30.15 in 10.0 mi NW 4.6 mph - N/A   Mostly Cloudy
12:53 PM 39.9 °F 36.7 °F 33.1 °F 77% 30.15 in 10.0 mi Variable 4.6 mph - N/A   Mostly Cloudy
1:53 PM 41.0 °F 36.4 °F 33.1 °F 73% 30.15 in 10.0 mi West 6.9 mph - N/A   Scattered Clouds
2:53 PM 41.0 °F 33.5 °F 32.0 °F 70% 30.16 in 10.0 mi West 13.8 mph - N/A   Scattered Clouds
3:53 PM 41.0 °F 34.7 °F 30.0 °F 65% 30.16 in 10.0 mi WSW 10.4 mph 16.1 mph N/A   Scattered Clouds
4:53 PM 37.9 °F 30.9 °F 30.9 °F 76% 30.16 in 10.0 mi West 10.4 mph - N/A   Scattered Clouds
5:53 PM 37.9 °F 31.5 °F 28.9 °F 70% 30.17 in 10.0 mi West 9.2 mph - N/A   Scattered Clouds
6:53 PM 37.9 °F 33.5 °F 28.0 °F 68% 30.17 in 10.0 mi SSW 5.8 mph - N/A   Scattered Clouds
7:53 PM 36.0 °F 33.3 °F 28.0 °F 73% 30.18 in 10.0 mi Variable 3.5 mph - N/A   Partly Cloudy
8:53 PM 37.0 °F 31.6 °F 26.1 °F 65% 30.18 in 10.0 mi SSW 6.9 mph - N/A   Partly Cloudy
9:53 PM 36.0 °F - 26.1 °F 67% 30.18 in 10.0 mi Calm Calm - N/A   Partly Cloudy
10:53 PM 30.9 °F 24.3 °F 27.0 °F 85% 30.19 in 10.0 mi WNW 6.9 mph - N/A   Clear
11:53 PM 30.0 °F 24.1 °F 25.0 °F 82% 30.19 in 10.0 mi West 5.8 mph - N/A   Mostly Cloudy